CEST,Max TemperatureF,Mean TemperatureF,Min TemperatureF,Max Dew PointF,MeanDew PointF,Min DewpointF,Max Humidity, Mean Humidity, Min Humidity, Max Sea Level PressureIn, Mean Sea Level PressureIn, Min Sea Level PressureIn, Max VisibilityMiles, Mean VisibilityMiles, Min VisibilityMiles, Max Wind SpeedMPH, Mean Wind SpeedMPH, Max Gust SpeedMPH,PrecipitationIn, CloudCover, Events, WindDirDegrees
2013-6-1,57,48,40,57,51,39,100,97,87,29.74,29.68,29.65,12,5,2,17,9,,0.75,7,Rain,266
2013-6-2,52,50,48,54,48,45,100,91,76,30.04,29.84,29.68,9,6,2,24,17,33,0.35,8,Rain-Thunderstorm,311
2013-6-3,48,46,44,48,45,44,100,93,87,30.13,30.08,30.04,16,6,3,17,13,,0.47,8,Rain,294
2013-6-4,60,54,47,52,49,45,100,85,64,30.12,30.07,30.04,16,6,6,16,10,,0.01,5,Rain,315
2013-6-5,65,54,43,52,47,42,100,73,46,30.12,30.09,30.06,9,6,6,14,10,,0.00,4,,353
2013-6-6,67,58,48,57,52,46,94,83,64,30.18,30.15,30.12,16,7,6,7,4,,0.00,6,,35
2013-6-7,71,60,48,59,55,48,100,84,57,30.17,30.13,30.06,19,5,0,8,4,,0.00,4,Fog,360
2013-6-8,75,62,50,61,57,50,100,80,53,30.09,30.01,29.91,19,7,5,9,5,,0.08,3,Rain-Thunderstorm,349
2013-6-9,76,64,52,63,57,52,100,86,50,29.92,29.82,29.73,7,6,1,26,6,37,0.08,3,Fog-Rain-Thunderstorm,12
2013-6-10,60,57,54,59,56,50,100,95,77,29.89,29.78,29.71,6,4,1,13,7,,0.03,7,Rain-Thunderstorm,336
2013-6-11,68,59,50,52,48,45,94,68,38,30.06,29.97,29.89,6,6,6,16,10,,0.00,2,,333
2013-6-12,74,60,46,52,48,45,93,60,31,30.15,30.12,30.09,6,6,6,8,4,,0.00,2,,261
2013-6-13,78,64,51,57,53,46,94,63,37,30.15,30.07,29.93,6,6,6,9,7,,0.00,1,,185
2013-6-14,67,61,55,57,51,45,94,71,39,30.15,30.08,29.95,19,6,2,16,8,,0.04,4,Rain,310
2013-6-15,74,61,48,59,53,46,94,72,43,30.10,30.02,29.94,6,6,6,16,5,,0.00,2,,161
2013-6-16,76,65,54,57,54,50,88,64,41,30.06,30.03,29.98,6,6,6,15,7,,0.00,2,,243
2013-6-17,83,68,53,66,59,52,94,69,51,30.06,30.03,29.94,6,6,6,10,5,,0.00,1,,37
2013-6-18,89,74,59,73,67,59,100,73,46,30.06,30.02,29.93,16,8,6,9,5,,0.00,1,,310
2013-6-19,90,76,63,74,68,63,100,72,46,30.06,30.01,29.89,19,7,4,16,6,,0.00,1,,92
2013-6-20,91,78,64,73,67,57,100,70,43,29.95,29.90,29.75,16,6,2,38,8,50,0.01,2,Rain-Thunderstorm,108
2013-6-21,75,68,62,61,60,57,94,76,52,30.06,29.96,29.85,19,6,4,39,16,51,0.00,2,Rain-Thunderstorm,253
2013-6-22,77,68,60,61,58,55,94,72,44,30.06,30.03,29.94,6,6,6,10,5,,0.00,2,Rain,260
2013-6-23,72,64,56,61,57,52,94,74,53,30.01,29.95,29.90,6,6,6,21,9,,0.00,2,Rain,246
2013-6-24,61,57,53,55,52,48,100,85,57,30.09,30.05,30.01,19,6,4,16,9,,0.08,4,Rain,285
2013-6-25,54,52,50,54,51,46,100,93,87,30.15,30.08,30.04,12,6,3,21,13,,0.47,6,Rain,303
2013-6-26,55,52,48,48,45,39,94,82,58,30.28,30.21,30.15,12,6,6,20,13,,0.03,5,Rain,276
2013-6-27,60,53,46,48,45,42,93,74,43,30.30,30.23,30.18,6,6,6,13,7,,0.00,2,,214
2013-6-28,64,53,42,50,45,41,93,71,36,30.21,30.13,30.09,19,8,6,12,5,,0.00,3,,218
2013-6-29,65,56,46,54,49,45,94,76,49,30.13,30.06,30.01,6,6,3,17,10,,0.00,3,Rain,239
2013-6-30,62,54,47,54,44,39,94,68,41,30.21,30.16,30.09,19,7,6,17,12,,0.00,4,Rain,298